Spelunky HD - Low% No Gold

Definition: A run ending with the win criteria of both the Low% speedrun and the No Gold speedrun combined.


Rank Player Time Rating Spelunker Platform Video Comment
1   Kinnijup 2:43.007 100.00% Scary 5 bomb Olmec, troll gold
2   Spef 2:50.928 95.37% fast start
3   falafel_raptor 2:51.905 94.82% HeavyBreathing
4   Pibonacci 2:52.516 94.49% Awesome
5   Groomp 2:54.445 93.44% wowzers :)
6   Carlibraun 2:55.166 93.06% When the drip is respectable 😳 skipped a BM for this
7   Buddy7heElf 2:59.520 90.80% Sub 3!
8   d_tea 3:00.105 90.51% Olmec fail
9   DieDai 3:00.162 90.48% 20s 3-1 fuuuck
10   Geordie 3:01.010 90.05%
11   BlueCadet-3 3:02.547 89.30% [ B ]
12   kobs92 3:05.604 87.83% Yay
13   SAIBOT 3:05.754 87.75% boring run
14   chocolatecake5000 3:05.862 87.70% yeet
15   krille71 3:07.318 87.02% Looking better
16   meowmixmix 3:10.969 85.36% 2 pbs in a night :O
17   Baq 3:11.623 85.07% spicy 3-1 and 4-3. bad olmec
18   Kirby703 3:11.704 85.03% idk if I'm satisfied, but it's no longer "slow"
19   Vlad 3:12.305 84.76% funky Olmec
20   BronxTaco 3:19.827 81.57% olmec crust gold scary...
21   ix 3:21.167 81.03% star baker
22   TheNitromeFan 3:21.353 80.96% Fun run.
23   GruntingCrunchy 3:22.189 80.62% Improvised Olmec
24   DaftLunk 3:25.644 79.27% Olmec gold :(
25   Linkruler 3:29.461 77.82% Nice seed, up until lategame
26   Mazerak 3:29.517 77.80% finally bested my oldest pb
27   twiggle 3:31.000 77.25%
28   jjg27 3:31.190 77.19% 21s 4-1 and bad Olmec terrain ruined sub 3:30, but pb is pb
29   Polodajaneiro 3:32.024 76.88%
30   ShinGraywords 3:33.763 76.26% 5 hr grind session led to major frustration and minor PB
31   samcv 3:34.803 75.89% could've been sub 3:30 but olmec
32   Stuoid 3:36.817 75.18% Pretty good
33   Mikulus 3:37.864 74.82% thank you blue frog <3
34   TicTacFoe 3:40.269 74.00% this game is fun
35   NightHarvester 3:40.447 73.94% Bad Olmec
36   Sedoxa 3:41.615 73.55% aaannnnnddd another horrible temple :|
37   Bum 3:45.333 72.34% Have a 3:21 i never uploaded
38   InTol 3:47.097 71.78% Some nasty levels
39   Abob71 3:50.908 70.59% BAAAAAAAAAAAAAAAD Olmec
40   Khold 3:52.365 70.15%
41   JakeTreester 3:52.749 70.04% Good Olmec RNG :O
42   SchnitzelDX 3:55.633 69.18% 1st no gold run in a year
43   AlwaysOlmec 3:55.766 69.14% Nice levels
44   Eszik 4:05.530 66.39% Finally got it :D Could be better but I'm happy with this
45   pojopoopoohead 4:07.105 65.97% Close deaths in 4-1 and 4-2 along with nail biting Olmec
46   HOBT0R 4:07.539 65.85% First time I pulled off the 1-bomb Olmec fight correctly
47   thatmarkguy 4:10.496 65.07% 37th time's the charm. 36 straight temple fails before this
48   Hectique 4:10.878 64.97% sure
49   E5ten 4:12.528 64.55% sub-5
50   Stiljoz 4:12.647 64.52% God-tier Mines Seed
51   Suspense 4:16.232 63.62% Soon after my first AJE completion too!
52   bootsthatshoot 4:16.811 63.47% drunken no gold low% hype
53   saturnin55 4:25.648 61.36% bat
54   Alcoer 4:37.000 58.85%
55   HeinzSkitsvelvet 4:39.143 58.40% Running on PC!
56   Berumondo 4:39.933 58.23% 1st completion, but shitty layouts all over the place
57   Yandie 4:42.259 57.75% yeeeeee
58   GreatStriker 4:43.315 57.54% olmec crushed one ruby
59   Dr. Probably 4:52.549 55.72% FINALLY
60   Maplestrip 4:56.297 55.01% I thought No Gold was hard, but this was easy! 0.o
61   jgunz3 4:56.448 54.99% Low% No Gold (feels good)
62   Pajecka7891 4:57.449 54.80% First pb on new PC!
63   MikeIsMyIke 5:01.082 54.14% 58s dark 2-4 :(
64   Phospho 5:07.825 52.95% Finally! I just needed to slow down all along
65   Konato_K 5:12.042 52.24% Why do only the slow runs get to live ;-;
66   Kittenwarlock 5:17.855 51.28% Inching toward sub 5
67   denis1080 5:20.312 50.89% Wasn't gonna lose 2 LowNG runs in a row on Olmec!
68   JPlay 5:30.353 49.34% BG audio by Some More News
69   MNC mascot 5:42.459 47.60% Olmec bomb toss saved me
70   kvec 5:46.565 47.03% first completion
71   Skylark 5:48.314 46.80% Spectral Bunny
72   Loki Nighton 6:07.511 44.35% Pauper bun is traumatised, must pay for counselling
73   Sawr 6:15.284 43.44% slow and steady!
74   yaddabing 6:21.762 42.70% I love the idea of these extra achievements!
75   Patdog56 6:33.057 41.47% super slowmec but whatevs \o/
76   DiMono 6:36.864 41.07% Woo!
77   courgette 6:37.833 40.97%
78   slink 6:40.933 40.66% THE NIGHTMARE IS OVER
79   AlphaChannel 6:58.024 38.99%
80   ContraMuffin 7:03.397 38.50%
81   Chickenhorse With internet 7:19.127 37.12% Those idiots in the background are my friends. The run: 3:18
82   tuabiht 7:21.713 36.90% Olmec 4 bomb safe strat
83   theZaxanator 7:22.605 36.83% This is shit but I'll come back to it later
84   gjchangmu 8:18.142 32.72% tried for 16 minutes...
85   Egg 8:24.567 32.31% 4 bombs at olmec
86   Cloiss 9:34.695 28.36% oh hey I completed a run
87   ShadowDx 12:32.084 21.67% Phew